User: anonymous   Login
Location: Unspecified
(0.0000°N, 0.0000°E)
Time: 06:57:42
(UTC+00:00)
Language:

Falconsat - Orbit

View from above orbital plane
View from above orbital plane
View from above satellite
View from above satellite

Ground track
Ground track

The orbit data is extracted from the following two-line orbital elements,

1 26064U 00004D   17202.62687804 -.00000008 +00000-0 +17428-4 0  9990
2 26064 100.2301 208.3975 0037215 224.7484 135.0692 14.36129242915791
Epoch (UTC): 21 July 2017 15:02:42
Eccentricity: 0.0037215
inclination: 100.2301°
perigee height: 745 km
apogee height: 798 km
right ascension of ascending node: 208.3975°
argument of perigee: 224.7484°
revolutions per day: 14.36129242
mean anomaly at epoch: 135.0692°
orbit number at epoch: 91579

The dashed part of the orbit path shows where the satellite is in the earth's shadow,  

DLR